Location: Powder Track
(41.8531°N, 72.3584°W)
Time: 05:29:27
(UTC+00:00)

A-11 Canister half - Visible Passes

Search period start: 31 July 2021 00:00
Search period end: 10 August 2021 00:00
Orbit: 1527 x 1682 km, 47.3° (Epoch: 30 July)

Date Brightness Start Highest point End Pass type
(mag) Time Alt. Az. Time Alt. Az. Time Alt. Az.
31 Jul 11.0 01:14:18 10° W 01:18:27 14° WSW 01:22:33 10° SSW visible
01 Aug 11.0 00:52:08 10° W 00:56:53 15° WSW 01:01:35 10° SSW visible
02 Aug 11.0 00:30:03 10° W 00:35:19 16° WSW 00:40:32 10° SSW visible
